Location: Jodlow
(50.1500°N, 16.7500°E)
Time: 18:56:53
(UTC+02:00)

O/OREOS (USA 219) - Pass Details

Date: 05 March 2024
Orbit: 621 x 646 km, 72.0° (Epoch: 22 May)

Event Time Altitude Azimuth Distance (km) Brightness Sun altitude
Exits shadow 03:55:37 27° 159° (SSE) 1,237 ? -24.7°
Maximum altitude 03:57:32 41° 109° (ESE) 936 ? -24.5°
Drops below altitude 10° 04:01:52 10° 39° (NE) 2,054 ? -23.8°
Sets 04:04:14 0° 33° (NNE) 2,969 ? -23.5°
